This demonstration page uses our WeatherBlox Daily Observations layout. Learn more.

Hourly Observations for September 20, 2019

Temp ( °F °C ) Dew Point ( °F °C ) Humidity (%) Winds ( mph kmh ) Pressure ( in mb ) Visibility ( mi km ) Precip ( " mm )
12:15 am 00:15 Clear 50 10 46 8 88 88 W 3 6 30.33 1027 10 16.09344 0 0
12:35 am 00:35 Clear 50 10 46 8 88 88 Calm 30.33 1027 10 16.09344 0 0
12:55 am 00:55 Clear 50 10 46 8 88 88 W 3 6 30.33 1027 10 16.09344 0 0
1:15 am 01:15 Clear 50 10 46 8 88 88 W 3 6 30.33 1027 10 16.09344 0 0
1:35 am 01:35 Clear 50 10 46 8 88 88 Calm 30.33 1027 10 16.09344 0 0
1:55 am 01:55 Clear 50 10 46 8 88 88 WSW 3 6 30.33 1027 10 16.09344 0 0
2:15 am 02:15 Clear 50 10 46 8 88 88 W 5 7 30.33 1027 10 16.09344 0 0
2:35 am 02:35 Clear 50 10 46 8 88 88 WSW 3 6 30.33 1027 10 16.09344 0 0
2:55 am 02:55 Clear 52 11 46 8 82 82 SW 5 7 30.33 1027 10 16.09344 0 0
3:15 am 03:15 Clear 52 11 46 8 82 82 SSW 3 6 30.33 1027 10 16.09344 0 0
3:35 am 03:35 Clear 50 10 46 8 88 88 SSW 3 6 30.33 1027 10 16.09344 0 0
3:55 am 03:55 Clear 46 8 45 7 93 93 SW 3 6 30.33 1027 10 16.09344 0 0
4:15 am 04:15 Clear 50 10 46 8 88 88 S 6 9 30.33 1027 10 16.09344 0 0
4:35 am 04:35 Clear 50 10 46 8 88 88 Calm 30.33 1027 10 16.09344 0 0
4:55 am 04:55 Clear 48 9 46 8 94 94 Calm 30.33 1027 10 16.09344 0 0
5:15 am 05:15 Clear 46 8 45 7 93 93 Calm 30.33 1027 10 16.09344 0 0
5:35 am 05:35 Clear 45 7 45 7 100 100 Calm 30.33 1027 10 16.09344 0 0
5:55 am 05:55 Clear 46 8 46 8 100 100 Calm 30.33 1027 10 16.09344 0 0
6:15 am 06:15 Clear 46 8 46 8 100 100 Calm 30.33 1027 10 16.09344 0 0
6:35 am 06:35 Clear 45 7 43 6 93 93 Calm 30.33 1027 10 16.09344 0 0
6:55 am 06:55 Clear 45 7 45 7 100 100 Calm 30.33 1027 10 16.09344 0 0
7:15 am 07:15 Sunny 45 7 45 7 100 100 Calm 30.36 1028 10 16.09344 0 0
7:35 am 07:35 Sunny 45 7 45 7 100 100 undefined N/A 30.36 1028 10 16.09344 0 0
7:55 am 07:55 Sunny 48 9 46 8 94 94 Calm 30.36 1028 10 16.09344 0 0
8:15 am 08:15 Sunny 52 11 50 10 94 94 Calm 30.36 1028 10 16.09344 0 0
8:35 am 08:35 Sunny 54 12 50 10 88 88 Calm 30.39 1029 10 16.09344 0 0
8:55 am 08:55 Sunny 55 13 50 10 82 82 Calm 30.33 1027 10 16.09344 0 0
9:15 am 09:15 Sunny 55 13 50 10 82 82 Calm 30.33 1027 10 16.09344 0 0
9:35 am 09:35 Sunny 59 15 52 11 77 77 Calm 30.33 1027 10 16.09344 0 0
9:55 am 09:55 Sunny 61 16 52 11 72 72 Calm 30.33 1027 10 16.09344 0 0
10:15 am 10:15 Sunny 63 17 52 11 68 68 SW 3 6 30.33 1027 10 16.09344 0 0
10:35 am 10:35 Sunny 64 18 52 11 64 64 S 3 6 30.33 1027 10 16.09344 0 0
10:55 am 10:55 Sunny 66 19 52 11 60 60 WSW 5 7 30.33 1027 10 16.09344 0 0
11:15 am 11:15 Sunny 68 20 52 11 56 56 Calm 30.33 1027 10 16.09344 0 0
11:35 am 11:35 Sunny 70 21 52 11 53 53 SSW 6 9 30.3 1026 10 16.09344 0 0
11:55 am 11:55 Sunny 70 21 52 11 53 53 S 5 7 30.3 1026 10 16.09344 0 0
12:15 pm 12:15 Sunny 72 22 52 11 50 50 Calm 30.3 1026 10 16.09344 0 0
12:35 pm 12:35 Sunny 72 22 50 10 47 47 S 7 11 30.3 1026 10 16.09344 0 0
12:55 pm 12:55 Sunny 73 23 52 11 47 47 SW 7 11 30.27 1025 10 16.09344 0 0
1:15 pm 13:15 Sunny 73 23 50 10 44 44 SSE 6 9 30.27 1025 10 16.09344 0 0
1:35 pm 13:35 Sunny 77 25 50 10 39 39 SSE 5 7 30.27 1025 10 16.09344 0 0
1:55 pm 13:55 Sunny 77 25 50 10 39 39 SSE 6 9 30.27 1025 10 16.09344 0 0
2:15 pm 14:15 Sunny 77 25 50 10 39 39 SE 3 6 30.24 1024 10 16.09344 0 0
2:35 pm 14:35 Sunny 79 26 52 11 39 39 S 5 7 30.24 1024 10 16.09344 0 0
2:55 pm 14:55 Sunny 77 25 52 11 42 42 SSW 3 6 30.24 1024 10 16.09344 0 0
3:15 pm 15:15 Sunny 77 25 50 10 39 39 Calm 30.24 1024 10 16.09344 0 0
3:35 pm 15:35 Sunny 77 25 50 10 39 39 N 3 6 30.21 1023 10 16.09344 0 0
3:55 pm 15:55 Sunny 79 26 52 11 39 39 WNW 5 7 30.21 1023 10 16.09344 0 0
4:15 pm 16:15 Sunny 79 26 50 10 37 37 Calm 30.21 1023 10 16.09344 0 0
4:35 pm 16:35 Sunny 79 26 52 11 39 39 W 5 7 30.21 1023 10 16.09344 0 0
4:55 pm 16:55 Sunny 79 26 52 11 39 39 WSW 5 7 30.21 1023 10 16.09344 0 0
5:15 pm 17:15 Sunny 79 26 50 10 37 37 Calm 30.21 1023 10 16.09344 0 0
5:35 pm 17:35 Sunny 79 26 52 11 39 39 W 7 11 30.21 1023 10 16.09344 0 0
5:55 pm 17:55 Sunny 79 26 52 11 39 39 W 3 6 30.21 1023 10 16.09344 0 0
6:15 pm 18:15 Sunny 79 26 52 11 39 39 SW 3 6 30.21 1023 10 16.09344 0 0
6:35 pm 18:35 Sunny 77 25 52 11 42 42 Calm 30.21 1023 10 16.09344 0 0
6:55 pm 18:55 Sunny 75 24 52 11 44 44 Calm 30.21 1023 10 16.09344 0 0
7:15 pm 19:15 Clear 73 23 54 12 50 50 Calm 30.21 1023 10 16.09344 0 0
7:35 pm 19:35 Clear 70 21 54 12 57 57 Calm 30.21 1023 10 16.09344 0 0
7:55 pm 19:55 Clear 70 21 54 12 57 57 S 3 6 30.24 1024 10 16.09344 0 0
8:15 pm 20:15 Clear 68 20 54 12 60 60 S 3 6 30.24 1024 10 16.09344 0 0
8:35 pm 20:35 Clear 68 20 54 12 60 60 Calm 30.24 1024 10 16.09344 0 0
8:55 pm 20:55 Clear 64 18 55 13 73 73 Calm 30.24 1024 10 16.09344 0 0
9:15 pm 21:15 Clear 64 18 55 13 73 73 SSW 3 6 30.24 1024 10 16.09344 0 0
9:35 pm 21:35 Clear 61 16 57 14 88 88 Calm 30.24 1024 10 16.09344 0 0
9:55 pm 21:55 Clear 63 17 55 13 77 77 Calm 30.24 1024 10 16.09344 0 0
10:15 pm 22:15 Clear 61 16 55 13 83 83 Calm 30.24 1024 10 16.09344 0 0
10:35 pm 22:35 Clear 59 15 55 13 88 88 Calm 30.24 1024 10 16.09344 0 0
10:55 pm 22:55 Clear 61 16 55 13 83 83 Calm 30.24 1024 10 16.09344 0 0
11:15 pm 23:15 Clear 59 15 55 13 88 88 SW 3 6 30.24 1024 10 16.09344 0 0
11:35 pm 23:35 Clear 59 15 55 13 88 88 Calm 30.24 1024 10 16.09344 0 0
11:55 pm 23:55 Clear 59 15 55 13 88 88 Calm 30.24 1024 10 16.09344 0 0

Powered by AerisWeather